STARLINK-32842, 62822

Orbit data source: Space-Track

STARLINK-32842, 62822 is a payload satellite owned by SpaceX/Seattle (US) in LEO that was launched on Fri, 24 Jan 2025 UTC via an FALCON 9 launch vehicle from the Air Force Western Test Range (AFWTR). Payload-class satellites include a variety of spacecraft equipped with specific instruments for various scientific and technological missions. These include communications satellites like Starlink; space stations such as the ISS; scientific satellites like the Hubble; Earth observation satellites from companies like Planet Labs, Umbra, and HawkEye 360; GPS; miniature CubeSats for education and research; and military/defense satellites.

Loading next visibility...
Identifier
62822, 2025-018S
Orbit
LEO
Last TLE update
1 day ago
Origin
Manufacturer
SpaceX/Seattle
Mission
Operational Commercial Communications
Bus & Motor
STARLINK V2M, Unknown motor
Mass
730 kg wet, ~700 kg dry
Launch date (UTC)
2025-01-24 (5 months ago)
Launch vehicle
FALCON 9
Launch site
Air Force Western Test Range (AFWTR)
Object type
Payload
Rocket body
Debris
Shape & HBR
Box + 2 Pan, 29 m
Radar Cross Section
33.884 m², Large (>1 m²)

Expand to show TLE details & history

TLE from 1 day ago
0 STARLINK-32842
1 62822U 25018S   25185.84979387  .00013038  00000-0  45154-3 0  9999
2 62822  53.1591  20.7455 0001134  93.0278 267.0853 15.30201732 25234
Epoch: 2025-07-04T20:23Z
TLE epoch observation values (Epoch: 2025-07-04T20:23:42.19Z)
Latitude
0.00002°
Longitude
151.72344°
Altitude
476.149 km
Speed
7.629 km/s
True Right ascension
01h 22m 58s
True Declination
0° 00' 00"
Sunlit
Object was in daylight at epoch
Visualization orbit readout
Latitude
46.1547°
Longitude
-84.10033°
Altitude
479.338 km
Speed
7.632 km/s
Apparent Right ascension
02h 12m 35s
Apparent Declination
67° 39' 20"
Sunlit
Object is in daylight
Visualization observer readout
Local Sidereal Time
09:54:54
Azimuth
337.174° NNW
Elevation
27.878°
Doppler factor
1
Orbital elements
Apogee altitude
476.244 km
Perigee altitude
474.689 km
Semi-major axis
6,853.603 km
Eccentricity
0.00011
Inclination
53.1591°
RAAN
20.7455°
Arg. of periapsis
93.0278°
True anomaly
Unknown
Mean anomaly
267.0853°
Eccentric anomaly
Unknown
Mean motion
3.82529 °/min
Orbital period
94.11 mins
BSTAR
0.00045154
Loading maneuver chart data...
Loading SW <> Apogee altitude chart data...
Loading historical data...
Loading historical data...
Loading historical data...
Loading historical data...
Loading historical data...
Loading historical data...
Loading historical data...

STARLINK-32842 Visibility forecast

Observer location: undefined°, undefined°

Span
Click to sort rows by Start time (UTC) header in descending order
Start Az.
Max El. time (UTC)
Max El. Az.
Max El.
End time (UTC)
End Az.
5 mins2025-07-05 21:58:47.917Z336.884° NNW2025-07-05 22:00:47.917Z59.528° ENE34.841°2025-07-05 22:03:47.917Z109.996° ESE
5 mins2025-07-06 14:53:47.917Z198.008° SSW2025-07-06 14:55:47.917Z138.176° SSE35.411°2025-07-06 14:58:47.917Z64.124° ENE
5 mins2025-07-06 16:31:47.917Z284.475° WNW2025-07-06 16:33:47.917Z329.003° NNW23.64°2025-07-06 16:36:47.917Z28.584° NE
5 mins2025-07-06 21:28:47.917Z334.066° NNW2025-07-06 21:30:47.917Z33.947° NE33.247°2025-07-06 21:33:47.917Z102.835° ESE
|